Home > Weather > Kagoshima > Past weeks

Flag for Japan Past Weather in Kagoshima, Japan — Yesterday and Last 2 Weeks

Now
93 °F

Hot.


Feels Like: 105 °F
Forecast: 76 / 93 °F
Wind: 6 mph from South

Location: Kagoshima

Current Time: Aug 25, 2016 at 1:46:25 PM

Latest Report: Aug 25, 2016 at 1:00 PM


Visibility: N/A

Pressure: 29.67 "Hg

Humidity: 58%

Dew Point: 76 °F

Location of KagoshimaLocation

Past Weather in Kagoshima — Graph

°F

Kagoshima Temperature Yesterday

Maximum temperature yesterday: 92 °F (at 11:00 AM)
Minimum temperature yesterday: 82 °F (at 12:00 AM)
Average temperature yesterday: 86 °F

High & Low Weather Summary for the Past Weeks

 TemperatureHumidityPressure
High98 °F (Aug 22, 12:00 PM)99% (Aug 23, 7:00 PM)29.83 "Hg (Aug 23, 7:00 PM)
Low79 °F (Aug 23, 7:00 PM)43% (Aug 22, 12:00 PM)29.50 "Hg (Aug 16, 3:00 PM)
Average88 °F72%29.66 "Hg
* Reported Aug 10 12:00 PM — Aug 25 12:00 PM, Kagoshima, Weather by CustomWeather, © 2016

Note: Actual official high and low records may vary slightly from our data, if they occured in-between our weather recording intervals... More about our weather records

Advertising

Kagoshima Weather History for the Previous 24 Hours

Scroll right to see more
 ConditionsComfort  
Time TempWeatherWind HumidityBarometerVisibility
12:00 PM
Thu, Aug 25
91 °FScattered clouds.8 mph63%29.67 "Hg22 mi
11:00 AM92 °FHot.12 mph58%29.68 "HgN/A
10:00 AM90 °FHot.8 mph64%29.68 "HgN/A
9:00 AM87 °FPartly sunny.9 mph71%29.69 "Hg16 mi
8:00 AM85 °FWarm.9 mph77%29.68 "HgN/A
7:00 AM84 °FWarm.7 mph78%29.68 "HgN/A
6:00 AM83 °FPassing clouds.6 mph82%29.67 "Hg16 mi
5:00 AM83 °FWarm.7 mph81%29.66 "HgN/A
4:00 AM83 °FWarm.9 mph79%29.65 "HgN/A
3:00 AM83 °FPassing clouds.7 mph80%29.65 "Hg16 mi
2:00 AM82 °FWarm.8 mph81%29.66 "HgN/A
1:00 AM83 °FWarm.8 mph79%29.66 "HgN/A
12:00 AM83 °FWarm.8 mph79%29.67 "HgN/A
11:00 PM
Wed, Aug 24
84 °FWarm.9 mph74%29.68 "HgN/A
10:00 PM84 °FWarm.7 mph74%29.69 "HgN/A
9:00 PM84 °FPassing clouds.12 mph76%29.68 "Hg19 mi
8:00 PM84 °FWarm.9 mph76%29.67 "HgN/A
7:00 PM85 °FWarm.7 mph72%29.65 "HgN/A
6:00 PM86 °FPassing clouds.12 mph72%29.64 "Hg22 mi
5:00 PM87 °FWarm.5 mph72%29.63 "HgN/A
4:00 PM87 °FWarm.7 mph75%29.63 "HgN/A
3:00 PM90 °FOvercast.8 mph68%29.62 "Hg25 mi
2:00 PM90 °FHot.3 mph66%29.62 "HgN/A
1:00 PM89 °FHot.10 mph69%29.63 "HgN/A
Weather by CustomWeather, © 2016

See weather overviewHow to use our weather pages